This demonstration page uses our WeatherBlox Daily Observations layout. Learn more.

Left ArrowRight Arrow

Hourly Observations for August 11, 2021

Temp ( °F °C ) Dew Point ( °F °C ) Humidity (%) Winds ( mph kmh ) Pressure ( in mb ) Visibility ( mi km ) Precip ( " mm )
12:51 am 00:51 Clear 75 23.9 68 20 79 79 E 7 11 29.92 1013 10 16 0.00 0.00
1:51 am 01:51 Clear 76 24.4 68 20 77 77 ENE 8 13 29.91 1013 10 16 0.00 0.00
2:51 am 02:51 Mostly Cloudy 73 22.8 70 21.1 90 90 NW 8 13 29.93 1014 10 16 0.00 0.00
3:51 am 03:51 Mostly Clear 71 21.7 66 18.9 84 84 NW 18 30 29.94 1014 10 16 0.00 0.00
4:51 am 04:51 Clear 72 22.2 66 18.9 82 82 NNW 10 17 29.93 1014 10 16 0.00 0.00
5:51 am 05:51 Sunny 68 20 66 18.9 93 93 WNW 8 13 29.96 1015 10 16 0.00 0.00
6:51 am 06:51 Sunny 68 20 66 18.9 93 93 WNW 8 13 29.98 1015 10 16 0.00 0.00
7:51 am 07:51 Partly Cloudy 71 21.7 67 19.4 87 87 WNW 7 11 30.00 1016 10 16 0.00 0.00
8:51 am 08:51 Sunny 75 23.9 68 20 79 79 VRB 3 6 29.99 1016 10 16 0.00 0.00
9:51 am 09:51 Sunny 79 26.1 68 20 69 69 VRB 3 6 29.97 1015 10 16 0.00 0.00
10:51 am 10:51 Sunny 83 28.3 67 19.4 59 59 WNW 10 17 29.96 1015 10 16 0.00 0.00
11:51 am 11:51 Sunny 86 30 66 18.9 51 51 WNW 14 22 29.92 1013 10 16 0.00 0.00
12:51 pm 12:51 Sunny 89 31.7 66 18.9 47 47 WNW 16 26 29.89 1012 10 16 0.00 0.00
1:51 pm 13:51 Sunny 89 31.7 64 17.8 43 43 WNW 18 30 29.86 1011 10 16 0.00 0.00
2:51 pm 14:51 Sunny 90 32.2 63 17.2 41 41 NW 17 28 29.83 1010 10 16 0.00 0.00
3:51 pm 15:51 Sunny 91 32.8 62 16.7 38 38 WNW 17 28 29.81 1010 10 16 0.00 0.00
4:51 pm 16:51 Sunny 90 32.2 64 17.8 42 42 WNW 14 22 29.81 1009 10 16 0.00 0.00
5:51 pm 17:51 Sunny 89 31.7 64 17.8 43 43 NW 17 28 29.81 1010 10 16 0.00 0.00
6:51 pm 18:51 Sunny 86 30 63 17.2 46 46 NW 12 19 29.83 1010 10 16 0.00 0.00
7:51 pm 19:51 Clear 83 28.3 64 17.8 53 53 NW 9 15 29.87 1011 10 16 0.00 0.00
8:51 pm 20:51 Mostly Clear 81 27.2 66 18.9 61 61 NW 6 9 29.89 1012 10 16 0.00 0.00
9:51 pm 21:51 Clear 78 25.6 68 20 71 71 NNW 3 6 29.90 1013 10 16 0.00 0.00
10:51 pm 22:51 Clear 78 25.6 67 19.4 69 69 WNW 6 9 29.90 1012 10 16 0.00 0.00
11:51 pm 23:51 Clear 77 25 66 18.9 69 69 WNW 8 13 29.88 1012 10 16 0.00 0.00

Powered by AerisWeather